Flag for U.S.A. Weather past 2 weeks in Santa Rosa, California, U.S.A.

Now
58 °F

Passing clouds.


Feels Like: 58 °F
Forecast: 55 / 81 °F
Wind: 3 mph from South

Location: Santa Rosa Sonoma County Airport

Current Time: Jul 4, 2015 at 12:36:41 AM

Latest Report: Jul 3, 2015 at 11:53 PM


Visibility: 10 mi

Pressure: 29.86 "Hg

Humidity: 90%

Dew point: 55 °F

Location of Santa RosaLocation

Historic Weather in Santa Rosa — Graph

°F

Santa Rosa temperature yesterday

Maximum temperature yesterday: 82 °F (at 3:53 PM)
Minimum temperature yesterday: 58 °F (at 12:53 AM)
Average temperature yesterday: 67 °F

Past Weeks' High & Low Weather Summary

 TemperatureHumidityPressure
High101 °F (Jun 30, 4:53 PM)96% (Jun 22, 5:53 AM)30.04 "Hg (Jun 22, 5:53 AM)
Low45 °F (Jun 19, 5:53 AM)21% (Jun 30, 3:53 PM)29.75 "Hg (Jun 30, 5:53 PM)
Average66 °F65%29.90 "Hg
* Reported Jun 18 10:53 PM — Jul 3 10:53 PM, Santa Rosa, Weather by CustomWeather, © 2015

Note: Actual official high and low records may vary slightly from our data, if they occured in-between our weather recording intervals... More about our weather records

Advertising

Santa Rosa weather history for previous 24 hours

 ConditionsComfort  
Time TempWeatherWind HumidityBarometerVisibility
10:53 PM
Fri, Jul 3
59 °FClear.6 mph87%29.86 "Hg10 mi
9:53 PM60 °FClear.8 mph83%29.85 "Hg10 mi
8:53 PM63 °FSunny.9 mph75%29.84 "Hg10 mi
7:53 PM69 °FSunny.9 mph63%29.83 "Hg10 mi
6:53 PM73 °FSunny.10 mph55%29.83 "Hg10 mi
5:53 PM78 °FSunny.12 mph48%29.83 "Hg10 mi
4:53 PM78 °FSunny.15 mph48%29.84 "Hg10 mi
3:53 PM82 °FPassing clouds.12 mph44%29.84 "Hg10 mi
2:53 PM81 °FPassing clouds.12 mph45%29.85 "Hg10 mi
1:53 PM81 °FScattered clouds.10 mph44%29.87 "Hg10 mi
12:53 PM80 °FScattered clouds.6 mph47%29.89 "Hg10 mi
11:53 AM74 °FScattered clouds.3 mph56%29.90 "Hg10 mi
10:53 AM69 °FScattered clouds.5 mph66%29.92 "Hg10 mi
9:53 AM64 °FScattered clouds.5 mph75%29.93 "Hg10 mi
8:53 AM60 °FLow clouds.No wind86%29.94 "Hg7 mi
7:53 AM59 °FFog.No wind87%29.93 "Hg6 mi
6:53 AM58 °FFog.5 mph93%29.93 "Hg6 mi
5:53 AM58 °FLow clouds.6 mph93%29.92 "Hg10 mi
4:53 AM58 °FPassing clouds.5 mph90%29.89 "Hg10 mi
3:53 AM58 °FPassing clouds.5 mph90%29.88 "Hg10 mi
2:53 AM59 °FPassing clouds.6 mph90%29.89 "Hg10 mi
1:53 AM58 °FPassing clouds.5 mph93%29.89 "Hg10 mi
12:53 AM58 °FClear.6 mph93%29.91 "Hg10 mi
Weather by CustomWeather, © 2015

See weather overviewHow to use our weather pages